This is the latest recevied weather packets stored in our database for station/object KA3BQE-13. If no packets are shown the sender has not sent any weather packets the latest 10 day(s).
| Time | Temp. | Humidity | Pressure | Rain* | Wind** | Luminosity | Snow |
|---|---|---|---|---|---|---|---|
| 1777894237 | 8.89° C | 99% | 1007.5 hPa | 0 mm | - | 27 W/m² | - |
| 1777893933 | 8.89° C | 99% | 1007.4 hPa | 0 mm | - | 21 W/m² | - |
| 1777893630 | 8.89° C | 99% | 1007.4 hPa | 0 mm | - | 19 W/m² | - |
| 1777893326 | 8.89° C | 99% | 1007.3 hPa | 0 mm | - | 14 W/m² | - |
| 1777893022 | 8.89° C | 99% | 1007.3 hPa | 0 mm | - | 11 W/m² | - |
| 1777892720 | 8.33° C | 99% | 1007.3 hPa | 0 mm | - | 9 W/m² | - |
| 1777892416 | 7.78° C | 99% | 1007.4 hPa | 0 mm | - | 5 W/m² | - |
| 1777892111 | 7.78° C | 99% | 1007.3 hPa | 0 mm | - | 4 W/m² | - |
| 1777891809 | 7.78° C | 99% | 1007.3 hPa | 0 mm | - | 2 W/m² | - |
| 1777891506 | 7.78° C | 99% | 1007.2 hPa | 0 mm | - | 1 W/m² | - |
| 1777891202 | 7.78° C | 99% | 1007.1 hPa | 0 mm | - | 0 W/m² | - |
| 1777890896 | 7.78° C | 99% | 1007.2 hPa | 0 mm | - | 0 W/m² | - |
| 1777890592 | 7.78° C | 99% | 1007.2 hPa | 0 mm | - | 0 W/m² | - |
| 1777890287 | 7.78° C | 99% | 1007.3 hPa | 0 mm | - | 0 W/m² | - |
| 1777889984 | 7.78° C | 99% | 1007.3 hPa | 0 mm | - | 0 W/m² | - |
| 1777889682 | 7.78° C | 99% | 1007.5 hPa | 0 mm | - | 0 W/m² | - |
| 1777889379 | 7.78° C | 99% | 1007.4 hPa | 0 mm | - | 0 W/m² | - |
| 1777889077 | 7.78° C | 99% | 1007.8 hPa | 0 mm | - | 0 W/m² | - |
| 1777888774 | 7.78° C | 99% | 1007.6 hPa | 0 mm | - | 0 W/m² | - |
| 1777888470 | 7.78° C | 99% | 1007.7 hPa | 0 mm | - | 0 W/m² | - |
| 1777888166 | 7.78° C | 99% | 1007.7 hPa | 0 mm | - | 0 W/m² | - |
| 1777887864 | 8.33° C | 99% | 1007.6 hPa | 0 mm | - | 0 W/m² | - |
| 1777887561 | 8.33° C | 98% | 1007.7 hPa | 0 mm | - | 0 W/m² | - |
| 1777887256 | 7.78° C | 98% | 1007.6 hPa | 0 mm | - | 0 W/m² | - |
| 1777886952 | 8.33° C | 98% | 1007.9 hPa | 0 mm | - | 0 W/m² | - |
* Rain latest hour (hover to see other rain measurements)
** Current wind speed in m/s (hover to see current wind gust speed)